Location: Chavenne
(46.6022°N, 3.2951°E)
Time: 15:28:21
(UTC+00:00)

STARLINK-1138 - Pass Details

Date: 09 April 2020
Orbit: 549 x 551 km, 53.0° (Epoch: 28 May)

Event Time Altitude Azimuth Distance (km) Brightness Sun altitude
Rises 19:44:13 0° 298° (WNW) 2,733 9.3 -13.2°
Reaches altitude 10° 19:46:30 10° 303° (WNW) 1,837 7.7 -13.6°
Maximum altitude 19:50:37 55° 22° (NNE) 667 4.0 -14.2°
Enters shadow 19:53:02 23° 93° (E) 1,210 4.8 -14.6°
